Location: Rio Rancho Estates
(35.2387°N, 106.6673°W)
Time: 14:21:53
(UTC+00:00)

Daily predictions for brighter satellites

Satellite Brightness Start Highest point End
(mag) Time Altitude Azimuth Time Altitude Azimuth Time Altitude Azimuth
Meteor PRIRODA 3.8 12:00:51 10° NNE 12:04:29 75° E 12:08:08 10° S
PSLV R/B 4.0 12:00:55 10° S 12:05:03 58° W 12:09:13 10° NNW
Chunghua 1 4.4 12:03:07 17° W 12:05:51 88° S 12:09:35 10° E
SJ-12 4.4 12:03:41 10° NNE 12:07:45 63° E 12:11:47 10° S
STARLINK-1011 3.6 12:05:03 13° SW 12:08:38 71° NW 12:12:46 10° NE
CZ-2C R/B 3.2 12:06:39 10° NNW 12:10:29 27° WNW 12:14:17 10° SW
Okean O Rocket 4.2 12:08:44 10° NE 12:12:18 24° E 12:15:52 10° SSE
STARLINK-1036 3.7 12:09:50 12° WSW 12:13:37 63° NW 12:17:44 10° NE
Cosmos 1674 Rocket 3.6 12:09:55 10° S 12:14:21 88° E 12:18:47 10° N
Cosmos 1544 3.7 12:11:10 10° NNW 12:14:27 33° W 12:17:45 10° SSW
Cosmos 2082 3.9 12:09:06 10° SW 12:14:39 55° WNW 12:20:16 10° NNE
Cosmos 2151 Rocket 3.5 12:11:38 10° N 12:16:03 87° W 12:20:25 10° S
SL-16 R/B 2.9 12:10:30 10° NNW 12:16:06 60° ENE 12:21:40 10° SSE
Meteor 1-12 Rocket 4.3 12:10:31 10° N 12:16:32 81° W 12:22:24 10° S
Okean 2 Rocket 3.2 12:12:13 10° NNW 12:16:36 55° W 12:21:00 10° S
Cosmos 2333 Rocket 3.8 12:14:52 10° WNW 12:17:04 12° W 12:19:16 10° WSW
STARLINK-1044 3.8 12:14:36 10° WSW 12:18:35 57° NW 12:22:40 10° NE
GPS 2-04 Rocket1 2.8 12:16:50 11° W 12:20:26 50° SSW 12:23:58 10° ESE
STARLINK-1047 3.9 12:19:31 10° WSW 12:23:33 51° NW 12:27:36 10° NE
ATLAS 3B R/B 3.1 12:18:48 10° SSW 12:25:26 68° ESE 12:32:02 10° NE
STARLINK-1037 4.0 12:21:40 10° WSW 12:25:41 49° NW 12:29:43 10° NE
STARLINK-1027 4.2 12:23:03 10° WSW 12:27:08 45° NW 12:31:14 10° NE
USA 238 DEB 4.4 12:22:33 10° WSW 12:28:33 35° NW 12:34:45 10° NNE
USA 238 4.4 12:22:39 10° WSW 12:28:39 35° NW 12:34:52 10° NNE
Cosmos 1092 Rocket 4.1 12:26:06 10° SSW 12:32:22 66° W 12:38:41 10° N
